User: anonymous   Login
Location: Unspecified
(0.0000°N, 0.0000°E)
Time: 20:43:02
(UTC+00:00)
Language:

Tiangong 1 - Orbit

View from above orbital plane
View from above orbital plane
View from above satellite
View from above satellite

Ground track
Ground track

The orbit data is extracted from the following two-line orbital elements,

1 37820U 11053A   16241.29371101  .00016352  00000-0  16385-3 0  9991
2 37820  42.7616 175.2964 0014861 187.2294 306.2486 15.65129249281874
Epoch (UTC): 28 August 2016 07:02:56
Eccentricity: 0.0014861
inclination: 42.7616°
perigee height: 363 km
apogee height: 383 km
right ascension of ascending node: 175.2964°
argument of perigee: 187.2294°
revolutions per day: 15.65129249
mean anomaly at epoch: 306.2486°
orbit number at epoch: 28187

The dashed part of the orbit path shows where the satellite is in the earth's shadow,  

DLR